"TOA5","AWS1","CR1000","7964","CR1000.Std.14","CPU:AWS1_114.CR1","64363","TBL110"
"TIMESTAMP","RECORD","Wind_spd_WVc(1)","Wind_spd_WVc(2)","Air_Temp_Avg","Humidity_Avg","SW_upper_Wm2_Avg","Rain_Tot","Press_Avg","Issui_Tot","Depth_cm","SR50A_Raw","Quality","Ground_Temp_Avg(1)","Ground_Temp_Avg(2)","SW_lower_Wm2_Avg","Albedo_Avg","SWC_per(1)","SWC_per(2)","Period(1)","Period(2)"
"TS","RN","","","","","","","","","","","","","","","","","","",""
"","","WVc","WVc","Avg","Avg","Avg","Tot","Avg","Tot","Smp","Smp","Smp","Avg","Avg","Avg","Avg","Smp","Smp","Smp","Smp"
"2018-04-17 00:00:00",336589,0.125,209.3,0.766,98.3,0,0,869.3607,0,-4.07,3.215,189,5.526,5.178,0.2882019,0,52.6,60.56,33.94,35.81
"2018-04-17 00:10:00",336590,0.145,144.1,1.102,94,0,0,869.3607,0,-4.095,3.215,190,5.53,5.178,0.5688196,0,52.6,60.56,33.94,35.81
"2018-04-17 00:20:00",336591,0.11,166.9,1.089,92.3,0,0,869.3607,0,-3.869,3.214,194,5.549,5.177,0.3830051,0,52.6,60.56,33.94,35.81
"2018-04-17 00:30:00",336592,0.107,158.2,1.072,92.3,0,0,869.3396,0,-4.369,3.219,191,5.441,5.175,0.3678366,0,52.6,60.56,33.94,35.81
"2018-04-17 00:40:00",336593,0.242,168,1.149,91.9,0,0,869.2321,0,-4.075,3.21,194,5.478,5.174,0.5953645,0,52.6,60.5,33.94,35.79
"2018-04-17 00:50:00",336594,0.108,189.6,1.944,82,0,0,869.2658,0,-4.003,3.205,189,5.387,5.173,1.122471,0,52.6,60.5,33.94,35.79
"2018-04-17 01:00:00",336595,0.411,288.6,2.461,78.32,0,0,869.3607,0,-4.077,3.209,190,5.353,5.173,0.902527,0,52.6,60.5,33.94,35.79
"2018-04-17 01:10:00",336596,0.052,163,2.453,76.73,0,0,869.3607,0,-3.98,3.203,189,5.361,5.168,0.5384825,0,52.6,60.5,33.94,35.79
"2018-04-17 01:20:00",336597,0.028,82.2,2.763,73.78,0,0,869.348,0,-3.628,3.2,194,5.301,5.175,0.6219093,0,52.55,60.56,33.92,35.81
"2018-04-17 01:30:00",336598,0.159,152.1,3.213,71.34,0,0,869.3586,0,-3.879,3.202,194,5.266,5.172,0.8835663,0,52.6,60.5,33.94,35.79
"2018-04-17 01:40:00",336599,0.139,188.9,2.293,76.91,0,0,869.3586,0,-3.826,3.207,195,5.249,5.175,0.007584261,0,52.6,60.56,33.94,35.81
"2018-04-17 01:50:00",336600,0.252,165.5,2.352,76.5,0,0,869.2005,0,-4.029,3.206,186,5.205,5.176,0.2009829,0,52.6,60.56,33.94,35.81
"2018-04-17 02:00:00",336601,0.282,174.7,2.958,72.64,0,0,869.3249,0,-3.653,3.199,185,5.18,5.176,0.6370779,0,52.55,60.5,33.92,35.79
"2018-04-17 02:10:00",336602,0.267,173.9,2.515,75.36,0,0,869.3607,0,-4.129,3.206,183,5.184,5.172,0.09101113,0,52.55,60.5,33.92,35.79
"2018-04-17 02:20:00",336603,0.12,174,3.065,72.23,0,0,869.4872,0,-4.608,3.208,200,5.144,5.165,0.6787913,0,52.6,60.5,33.94,35.79
"2018-04-17 02:30:00",336604,0.16,187.2,2.521,75.71,0,0,869.4998,0,-3.727,3.202,194,5.093,5.164,0.09480325,0,52.55,60.44,33.92,35.78
"2018-04-17 02:40:00",336605,0.147,180.2,2.964,73.26,0,0,869.3986,0,-4.382,3.204,195,5.107,5.144,0.6105329,0,52.55,60.5,33.92,35.79
"2018-04-17 02:50:00",336606,0.294,170,3.301,71.5,0,0,869.3776,0,-4.231,3.206,195,5.074,5.153,0.5877802,0,52.6,60.5,33.94,35.79
"2018-04-17 03:00:00",336607,0.143,171.1,2.65,76.13,0,0,869.5883,0,-3.527,3.2,196,5.006,5.136,0,0,52.55,60.5,33.92,35.79
"2018-04-17 03:10:00",336608,0.145,159.3,2.841,75.37,0,0,869.6495,0,-3.678,3.2,194,5.006,5.122,0.1592695,0,52.55,60.44,33.92,35.78
"2018-04-17 03:20:00",336609,0.07,189.2,3.223,73.13,0,0,869.6431,0,-3.854,3.197,195,4.959,5.086,0.5005612,0,52.6,60.44,33.94,35.78
"2018-04-17 03:30:00",336610,0.011,79.78,3.877,69.47,0,0,869.6136,0,-4.307,3.2,191,4.929,5.048,0.8039316,0,52.6,60.5,33.94,35.79
"2018-04-17 03:40:00",336611,0.034,127.7,3.377,73.05,0,0,869.7802,0,-4.331,3.207,191,4.919,5.022,0.2161514,0,52.55,60.44,33.92,35.78
"2018-04-17 03:50:00",336612,0.084,163.8,2.758,78.05,0,0,869.8202,0,-4.205,3.205,191,4.92,5.012,0,0,52.55,60.44,33.92,35.78
"2018-04-17 04:00:00",336613,0.192,170.8,2.756,77.77,0,0,869.8644,0,-4.08,3.205,182,4.87,5.006,0,0,52.55,60.44,33.92,35.78
"2018-04-17 04:10:00",336614,0.45,180.7,2.723,77.83,0,0,869.8665,0,-4.506,3.21,188,4.825,5.006,0.02654491,0,52.55,60.44,33.92,35.78
"2018-04-17 04:20:00",336615,0.063,192.2,2.865,76.06,0,0,870.0414,0,-4.784,3.21,180,4.833,5.006,0.2085672,0,52.55,60.44,33.92,35.78
"2018-04-17 04:30:00",336616,0.141,192.1,2.722,77.61,0,0,870.1194,0,-4.331,3.208,177,4.833,5.006,0.02654491,0,52.55,60.44,33.92,35.78
"2018-04-17 04:40:00",336617,0.165,170.3,2.5,79.7,0,0,870.1806,0,-4.279,3.209,181,4.851,5.006,0.03412917,0,52.55,60.44,33.92,35.78
"2018-04-17 04:50:00",336618,0.208,170.1,2.502,79.47,0,0,870.1658,0,-4.706,3.213,176,4.808,5.006,0.09101113,0,52.55,60.44,33.92,35.78
"2018-04-17 05:00:00",336619,0.176,173.3,2.219,82,0,0,870.2122,0,-4.48,3.211,176,4.747,5.006,0,0,52.55,60.44,33.92,35.78
"2018-04-17 05:10:00",336620,0.168,184.2,2.419,80.6,0,0,870.4019,0,-4.43,3.21,177,4.747,5.006,0.1137639,0,52.55,60.38,33.92,35.77
"2018-04-17 05:20:00",336621,0.315,184.1,2.381,80.9,0.1769836,0,870.5326,0,-4.48,3.211,176,4.757,5.022,0.1554773,0.1,52.55,60.38,33.92,35.77
"2018-04-17 05:30:00",336622,0.365,184.4,2.414,81,3.004788,0,870.5341,0,-4.103,3.207,188,4.712,5.039,0.6522464,0.237,52.55,60.38,33.92,35.77
"2018-04-17 05:40:00",336623,0.201,153.3,2.556,79.92,9.852087,0,870.6182,0,-4.18,3.205,187,4.66,5.005,1.858144,0.188,52.55,60.38,33.92,35.77
"2018-04-17 05:50:00",336624,0.325,189.6,2.804,78.44,15.99932,0,870.6241,0,-3.476,3.197,200,4.66,4.997,2.768255,0.174,52.55,60.38,33.92,35.77
"2018-04-17 06:00:00",336625,0.241,187.8,3.695,74.31,27.83755,0,870.6213,0,-3.374,3.188,207,4.66,4.981,4.96769,0.179,52.55,60.38,33.92,35.77
"2018-04-17 06:10:00",336626,0.176,150.8,4.312,71.32,38.82627,0,870.6227,0,-3.425,3.188,198,4.66,4.976,6.287352,0.162,52.6,60.38,33.94,35.77
"2018-04-17 06:20:00",336627,0.357,35.4,4.892,65.48,51.76967,0,870.6191,0,-3.624,3.187,205,4.66,4.959,8.020356,0.155,52.55,60.38,33.92,35.77
"2018-04-17 06:30:00",336628,0.228,128.3,4.763,68.82,65.64519,0,870.5955,0,-3.475,3.188,221,4.66,4.946,9.116282,0.139,52.6,60.38,33.94,35.77
"2018-04-17 06:40:00",336629,0.367,129.8,4.783,67.4,74.61629,0,870.5726,0,-2.335,3.173,278,4.639,4.937,10.35252,0.139,52.6,60.38,33.94,35.77
"2018-04-17 06:50:00",336630,0.502,144.1,5.553,60.54,84.90878,0,870.4539,0,-3.666,3.182,204,4.59,4.941,12.1879,0.144,52.55,60.38,33.92,35.77
"2018-04-17 07:00:00",336631,0.43,172,6.056,57.38,87.06056,0,870.5354,0,-3.406,3.179,208,4.564,4.931,12.22533,0.14,52.6,60.38,33.94,35.77
"2018-04-17 07:10:00",336632,0.334,160.5,6.218,56.64,109.535,0,870.6448,0,-3.309,3.177,225,4.537,4.928,15.32584,0.14,52.55,60.33,33.92,35.75
"2018-04-17 07:20:00",336633,0.342,22.96,6.224,58.9,121.5772,0,870.7138,0,-3.09,3.174,222,4.506,4.917,16.93525,0.139,52.55,60.33,33.92,35.75
"2018-04-17 07:30:00",336634,0.144,45.55,6.482,57.55,132.2447,0,870.8275,0,-3.715,3.179,195,4.499,4.911,18.42788,0.139,52.55,60.38,33.92,35.77
"2018-04-17 07:40:00",336635,0.172,91.1,6.573,59.61,136.3936,0,870.7895,0,-3.587,3.178,194,4.532,4.916,18.79138,0.138,52.55,60.33,33.92,35.75
"2018-04-17 07:50:00",336636,0.038,304.1,6.663,61.57,165.6557,0,870.7938,0,-3.333,3.175,189,4.56,4.917,23.15072,0.14,52.55,60.33,33.92,35.75
"2018-04-17 08:00:00",336637,0.302,55.34,6.792,59.08,194.3012,0,870.9193,0,-3.101,3.171,192,4.542,4.914,27.55183,0.142,52.6,60.33,33.94,35.75
"2018-04-17 08:10:00",336638,0.351,105.7,6.994,59.01,182.2074,0,870.9901,0,-3.581,3.175,193,4.522,4.917,25.78908,0.141,52.55,60.33,33.92,35.75
"2018-04-17 08:20:00",336639,0.247,340.5,7.079,58.94,182.0578,0,871.1215,0,-3.147,3.17,195,4.49,4.916,26.24395,0.144,52.55,60.33,33.92,35.75
"2018-04-17 08:30:00",336640,0.731,122.4,7.324,57.8,299.5634,0,871.173,0,-3.362,3.17,194,4.47,4.869,44.51038,0.149,52.55,60.33,33.92,35.75
"2018-04-17 08:40:00",336641,0.417,119.2,7.774,58.94,285.5903,0,871.1689,0,-3.484,3.168,176,4.484,4.829,45.53696,0.16,52.55,60.33,33.92,35.75
"2018-04-17 08:50:00",336642,0.303,33.04,7.961,59.52,241.1795,0,871.198,0,-3.323,3.168,193,4.462,4.8,37.11423,0.154,52.55,60.33,33.92,35.75
"2018-04-17 09:00:00",336643,0.405,86.5,7.751,61.1,204.5153,0,871.2147,0,-3.726,3.173,196,4.467,4.782,29.79438,0.145,52.55,60.33,33.92,35.75
"2018-04-17 09:10:00",336644,0.297,70.17,7.88,60.85,350.4473,0,871.2906,0,-3.388,3.167,186,4.511,4.759,50.72732,0.145,52.55,60.27,33.92,35.74
"2018-04-17 09:20:00",336645,0.234,241.2,8.17,61.83,300.6206,0,871.2357,0,-3.669,3.171,195,4.523,4.758,43.7163,0.145,52.55,60.27,33.92,35.74
"2018-04-17 09:30:00",336646,0.57,343,7.027,65.2,251.8647,0,871.3201,0,-3.584,3.178,198,4.518,4.718,36.24701,0.144,52.55,60.27,33.92,35.74
"2018-04-17 09:40:00",336647,0.525,1.074,6.674,64.86,351.9808,0,871.3327,0,-3.932,3.178,193,4.508,4.698,52.10624,0.148,52.49,60.27,33.91,35.74
"2018-04-17 09:50:00",336648,0.649,349.6,7.428,61.25,430.7241,0,871.3937,0,-3.979,3.177,186,4.528,4.698,67.18105,0.155,52.6,60.27,33.94,35.74
"2018-04-17 10:00:00",336649,0.566,295.2,7.643,62.25,324.4845,0,871.3854,0,-3.211,3.166,194,4.59,4.698,48.91544,0.151,52.49,60.27,33.91,35.74
"2018-04-17 10:10:00",336650,0.243,348.1,8.29,61.97,343.8018,0,871.3179,0,-3.656,3.166,200,4.587,4.69,51.54918,0.15,52.49,60.27,33.91,35.74
"2018-04-17 10:20:00",336651,0.399,13.5,8.48,61.06,394.5407,0,871.3664,0,-3.195,3.161,216,4.635,4.695,58.97272,0.149,52.55,60.27,33.92,35.74
"2018-04-17 10:30:00",336652,0.372,350.4,8.43,61.47,208.8777,0,871.4394,0,-3.562,3.171,207,4.678,4.668,28.2953,0.132,52.55,60.27,33.92,35.74
"2018-04-17 10:40:00",336653,0.251,147.9,8.22,65.28,452.6006,0,871.3008,0,-3.695,3.164,214,4.673,4.614,67.5388,0.144,52.49,60.27,33.91,35.74
"2018-04-17 10:50:00",336654,0.385,319.7,8.97,61.87,474.9266,0,871.124,0,-3.49,3.164,225,4.733,4.653,69.31529,0.145,52.49,60.27,33.91,35.74
"2018-04-17 11:00:00",336655,0.319,108.1,9.14,64.04,330.5514,0,871.0477,0,-3.781,3.165,193,4.689,4.652,48.44391,0.146,52.49,60.27,33.91,35.74
"2018-04-17 11:10:00",336656,0.583,120,9.02,64.14,306.7804,0,870.8827,0,-3.835,3.168,192,4.784,4.608,44.34628,0.144,52.49,60.27,33.91,35.74
"2018-04-17 11:20:00",336657,0.974,135.9,9.3,64.03,512.8465,0,870.7255,0,-3.881,3.167,202,4.769,4.578,78.33609,0.151,52.49,60.27,33.91,35.74
"2018-04-17 11:30:00",336658,0.737,117.8,9.04,64.81,156.6492,0,870.6487,0,-5.024,3.179,190,4.842,4.568,21.40714,0.134,52.49,60.27,33.91,35.74
"2018-04-17 11:40:00",336659,0.247,314.5,8.43,69.65,87.69643,0,870.6497,0,-4.142,3.173,205,4.9,4.553,11.10516,0.12,52.49,60.21,33.91,35.73
"2018-04-17 11:50:00",336660,0.185,275,8.2,72.32,102.1578,0,870.8134,0,-3.843,3.172,187,4.917,4.566,13.36338,0.13,52.49,60.21,33.91,35.73
"2018-04-17 12:00:00",336661,0.11,326.1,8.13,71.67,210.0128,0,870.7885,0,-3.715,3.169,180,4.991,4.57,30.23574,0.143,52.49,60.21,33.91,35.73
"2018-04-17 12:10:00",336662,0.395,350.7,8.47,69.51,232.7656,0,870.6599,0,-4.053,3.172,193,5.012,4.579,33.0634,0.142,52.49,60.21,33.91,35.73
"2018-04-17 12:20:00",336663,0.364,2.654,8.43,69.7,198.349,0,870.675,0,-3.987,3.172,228,5.103,4.595,27.69603,0.139,52.44,60.21,33.89,35.73
"2018-04-17 12:30:00",336664,0.542,355.9,8.26,70.23,232.5767,0,870.5683,0,-3.711,3.169,209,5.144,4.605,33.29788,0.143,52.49,60.21,33.91,35.73
"2018-04-17 12:40:00",336665,0.472,346.3,8.48,69.84,224.606,0,870.6104,0,-3.455,3.165,219,5.198,4.61,32.60495,0.145,52.49,60.21,33.91,35.73
"2018-04-17 12:50:00",336666,0.442,41.3,8.91,69.04,300.3516,0,870.5507,0,-3.345,3.161,207,5.175,4.61,44.81881,0.149,52.44,60.21,33.89,35.73
"2018-04-17 13:00:00",336667,0.445,336.6,8.91,68.35,314.8706,0,870.3707,0,-4.265,3.172,201,5.261,4.604,46.49386,0.147,52.49,60.21,33.91,35.73
"2018-04-17 13:10:00",336668,0.621,335.5,9.12,66.92,374.1509,0,870.134,0,-4.084,3.169,227,5.252,4.58,55.61906,0.148,52.44,60.21,33.89,35.73
"2018-04-17 13:20:00",336669,0.434,298.6,9.18,67.04,233.0864,0,869.9235,0,-4.028,3.167,193,5.316,4.567,33.91217,0.145,52.44,60.15,33.89,35.71
"2018-04-17 13:30:00",336670,0.525,82.9,9.37,67.87,231.2856,0,869.8166,0,-3.645,3.164,224,5.336,4.568,33.77563,0.146,52.44,60.15,33.89,35.71
"2018-04-17 13:40:00",336671,0.314,327.4,9.31,67.48,266.9966,0,869.6488,0,-3.988,3.165,191,5.366,4.572,39.99256,0.15,52.44,60.15,33.89,35.71
"2018-04-17 13:50:00",336672,0.339,166.3,10.17,66.01,484.4878,0,869.4019,0,-3.877,3.16,190,5.402,4.592,72.0499,0.149,52.44,60.15,33.89,35.71
"2018-04-17 14:00:00",336673,0.344,320.3,10.22,65.27,333.5754,0,869.3781,0,-3.104,3.152,208,5.467,4.594,48.48381,0.145,52.38,60.15,33.88,35.71
"2018-04-17 14:10:00",336674,0.295,5.909,10.73,64.33,294.3078,0,869.3597,0,-3.192,3.151,193,5.459,4.582,42.01723,0.142,52.44,60.15,33.89,35.71
"2018-04-17 14:20:00",336675,0.32,342.4,10.57,64.65,276.18,0,869.1868,0,-3.695,3.156,206,5.455,4.572,38.57512,0.139,52.38,60.15,33.88,35.71
"2018-04-17 14:30:00",336676,0.562,325.6,10.25,65.73,278.8888,0,868.9537,0,-3.775,3.159,200,5.533,4.563,40.39608,0.145,52.38,60.15,33.88,35.71
"2018-04-17 14:40:00",336677,0.219,6.049,10.43,66.75,288.9544,0,868.8804,0,-4.138,3.16,203,5.5,4.556,41.42848,0.143,52.38,60.15,33.88,35.71
"2018-04-17 14:50:00",336678,0.141,266.6,10.46,68.21,137.7629,0,868.8331,0,-3.44,3.157,240,5.609,4.573,17.08248,0.119,52.38,60.15,33.88,35.71
"2018-04-17 15:00:00",336679,0.12,115.8,9.78,71.25,72.67023,0,868.8308,0,-3.959,3.166,214,5.581,4.538,7.110981,0.097,52.38,60.15,33.88,35.71
"2018-04-17 15:10:00",336680,0.075,67.99,9.16,73.34,69.44173,0,868.8308,0,-3.763,3.165,193,5.597,4.543,7.599842,0.105,52.38,60.09,33.88,35.7
"2018-04-17 15:20:00",336681,0.363,6.273,9.07,72.15,120.1017,0,868.8364,0,-3.468,3.163,192,5.739,4.552,16.09052,0.134,52.32,60.09,33.87,35.7
"2018-04-17 15:30:00",336682,0.515,14.98,9.18,71.1,168.8686,0,868.8083,0,-3.521,3.162,209,5.708,4.564,24.78657,0.147,52.38,60.09,33.88,35.7
"2018-04-17 15:40:00",336683,0.23,146.3,9.48,70.63,180.3341,0,868.7125,0,-3.773,3.162,196,5.813,4.581,26.16671,0.145,52.38,60.09,33.88,35.7
"2018-04-17 15:50:00",336684,0.112,121.2,9.79,69.95,144.9265,0,868.8303,0,-3.878,3.162,200,5.818,4.638,20.38569,0.141,52.32,60.09,33.87,35.7
"2018-04-17 16:00:00",336685,0.109,280,9.6,71.89,95.739,0,868.6803,0,-3.841,3.164,193,5.821,4.675,12.2621,0.127,52.38,60.09,33.88,35.7
"2018-04-17 16:10:00",336686,0.106,311.9,9.44,72.49,97.86416,0,868.5436,0,-3.89,3.164,193,5.9,4.687,12.80436,0.13,52.32,60.09,33.87,35.7
"2018-04-17 16:20:00",336687,0.25,72.36,9.27,71.53,64.66978,0,868.3544,0,-3.844,3.165,174,5.95,4.685,7.866719,0.121,52.32,60.15,33.87,35.71
"2018-04-17 16:30:00",336688,0.21,102.4,9.29,72.55,70.98679,0,868.4052,0,-3.389,3.16,170,5.954,4.689,9.25001,0.13,52.32,60.15,33.87,35.71
"2018-04-17 16:40:00",336689,0.456,150.7,9.29,70.98,28.68289,0,868.3919,0,-3.395,3.161,189,5.932,4.693,3.160441,0.107,52.32,60.09,33.87,35.7
"2018-04-17 16:50:00",336690,0.233,131.9,9.24,71.42,22.81523,0,868.3264,0,-3.422,3.162,169,5.995,4.712,2.535196,0.109,52.32,60.09,33.87,35.7
"2018-04-17 17:00:00",336691,0.205,139.7,9.09,72.9,23.99043,0,868.3458,0,-3.475,3.163,170,5.997,4.747,3.501534,0.148,52.27,60.09,33.85,35.7
"2018-04-17 17:10:00",336692,0.016,255.3,8.71,77.83,14.73856,0,868.3797,0,-3.612,3.168,193,6.051,4.756,2.383621,0.163,52.27,60.09,33.85,35.7
"2018-04-17 17:20:00",336693,0.171,275.5,8.1,83.6,8.347922,0,868.3944,0,-3.515,3.169,195,6.081,4.776,1.496869,0.182,52.27,60.09,33.85,35.7
"2018-04-17 17:30:00",336694,0.631,87.3,7.852,91,11.95199,0,868.0174,0,-3.77,3.172,190,6.083,4.771,2.197934,0.181,52.27,60.09,33.85,35.7
"2018-04-17 17:40:00",336695,1.078,51.4,7.725,87.6,8.477621,0,868.108,0,-3.775,3.174,194,6.083,4.766,2.084248,0.255,52.27,60.03,33.85,35.69
"2018-04-17 17:50:00",336696,0.706,85.8,7.62,91.1,3.808445,0,868.2575,0,-3.827,3.175,174,6.083,4.754,1.277075,0.348,52.27,60.09,33.85,35.7
"2018-04-17 18:00:00",336697,0,0,7.402,100,2.181307,0.5,868.4176,0,-3.524,3.173,195,6.101,4.743,0.7882245,0.366,52.27,60.03,33.85,35.69
"2018-04-17 18:10:00",336698,0.131,281.6,7.247,100,1.568183,0,868.4176,0,-4.589,3.184,184,6.103,4.75,0.7579082,0.491,52.27,60.09,33.85,35.7
"2018-04-17 18:20:00",336699,0.057,294.9,7.157,100,0.6995904,0,868.4176,0,-4.49,3.184,177,6.121,4.754,0.4661135,0.755,52.27,60.03,33.85,35.69
"2018-04-17 18:30:00",336700,0.034,283.8,6.965,100,0.003930284,0.5,868.4302,0.5,-4.82,3.188,194,6.118,4.794,0.2084248,0.032,52.21,60.03,33.84,35.69
"2018-04-17 18:40:00",336701,0.149,353.7,6.833,100,0,0,868.4176,0,-4.19,3.183,181,6.11,4.826,0.0833699,0,52.27,60.03,33.85,35.69
"2018-04-17 18:50:00",336702,0.005,354.9,6.81,100,0,0.5,868.4176,0.5,-4.037,3.181,191,6.113,4.83,0.189477,0,52.27,60.03,33.85,35.69
"2018-04-17 19:00:00",336703,0.284,104.2,6.798,100,0,0,868.2512,0,-3.987,3.181,194,6.093,4.861,0.2766365,0,52.27,60.03,33.85,35.69
"2018-04-17 19:10:00",336704,0.408,73.94,6.785,100,0,0,868.1775,0,-4.086,3.181,172,6.083,4.883,0.5191671,0,52.21,60.03,33.84,35.69
"2018-04-17 19:20:00",336705,0.099,294.7,6.796,100,0,0,868.3818,0,-4.19,3.183,194,6.075,4.889,0.4812717,0,52.21,60.03,33.84,35.69
"2018-04-17 19:30:00",336706,0.268,15.81,6.733,100,0,0.5,868.4176,0.5,-4.397,3.185,172,6.06,4.876,0.3334851,0,52.21,60.03,33.84,35.69
"2018-04-17 19:40:00",336707,0.099,127,6.749,100,0,0,868.386,0,-3.903,3.18,190,6.064,4.873,0.06821691,0,52.21,59.97,33.84,35.67
"2018-04-17 19:50:00",336708,0.179,90.2,6.769,100,0,0,868.1459,0,-4.313,3.184,183,6.073,4.865,0.2463531,0,52.21,59.97,33.84,35.67
"2018-04-17 20:00:00",336709,0.583,9.85,6.765,100,0,0.5,868.0068,0,-4.237,3.183,195,6.076,4.864,0.4472274,0,52.21,59.97,33.84,35.67
"2018-04-17 20:10:00",336710,0.576,52.34,6.689,100,0,0,868.2701,0.5,-4.253,3.184,194,6.092,4.881,0,0,52.27,59.97,33.85,35.67
"2018-04-17 20:20:00",336711,0.65,130.8,6.653,100,0,0,868.1732,0,-4.233,3.184,196,6.111,4.906,0,0,52.21,59.97,33.84,35.67
"2018-04-17 20:30:00",336712,0.645,79.09,6.555,100,0,0,868.1649,0,-4.139,3.184,195,6.126,4.942,0,0,52.21,59.97,33.84,35.67
"2018-04-17 20:40:00",336713,0.488,336.4,6.498,100,0,0,868.2744,0,-4.19,3.184,181,6.163,5.008,0.367705,0,52.21,60.03,33.84,35.69
"2018-04-17 20:50:00",336714,0.024,18.57,6.523,100,0,0,868.4091,0,-4.291,3.185,189,6.145,5.062,0.2539811,0,52.21,59.97,33.84,35.67
"2018-04-17 21:00:00",336715,0,0,6.491,100,0,0.5,868.584,0,-3.915,3.182,194,6.097,5.075,0.4056157,0,52.27,59.97,33.85,35.67
"2018-04-17 21:10:00",336716,0,0,6.481,100,0,0,868.6155,0.5,-3.94,3.182,194,6.074,5.06,0.4473172,0,52.27,59.97,33.85,35.67
"2018-04-17 21:20:00",336717,0,0,6.434,100,0,0,868.6746,0,-3.612,3.179,192,6.025,5.049,0.3715015,0,52.21,59.97,33.84,35.67
"2018-04-17 21:30:00",336718,0,0,6.418,100,0,0,868.6619,0,-3.916,3.182,194,6.008,5.047,0.2918943,0,52.27,59.97,33.85,35.67
"2018-04-17 21:40:00",336719,0,0,6.456,100,0,0.5,868.6703,0,-4.269,3.185,176,6.007,5.047,0.276731,0,52.27,59.97,33.85,35.67
"2018-04-17 21:50:00",336720,0,0,6.4,100,0,0,868.6324,0.5,-4.219,3.185,194,6.034,5.044,0.08339839,0,52.27,59.97,33.85,35.67
"2018-04-17 22:00:00",336721,0,0,6.412,100,0,0,868.4428,0,-4.017,3.183,194,6.044,5.032,0.3752928,0,52.32,59.97,33.87,35.67
"2018-04-17 22:10:00",336722,0,0,6.302,100,0,0.5,868.2723,0,-4.221,3.186,195,6.063,5.005,0,0,52.32,59.97,33.87,35.67
"2018-04-17 22:20:00",336723,0.192,54.07,6.24,100,0,0,867.9542,0.5,-3.893,3.183,193,6.086,5.006,0.3184303,0,52.32,59.91,33.87,35.66
"2018-04-17 22:30:00",336724,0.681,184.8,6.244,100,0,0,867.6656,0,-3.917,3.183,194,6.083,5.005,0,0,52.32,59.97,33.87,35.67
"2018-04-17 22:40:00",336725,0.35,234.3,6.151,100,0,0.5,867.434,0,-3.867,3.183,194,6.071,5.005,0,0,52.38,59.97,33.88,35.67
"2018-04-17 22:50:00",336726,0.427,220.6,6.131,100,0,0,867.4066,0,-3.919,3.184,193,6.05,5.01,0,0,52.38,59.97,33.88,35.67
"2018-04-17 23:00:00",336727,0.004,295.6,6.128,100,0,0,867.4129,0.5,-3.944,3.184,193,6.016,5.042,0.0416992,0,52.44,59.97,33.89,35.67
"2018-04-17 23:10:00",336728,0.233,330.8,6.111,100,0,0,867.3771,0,-3.894,3.184,193,6.021,5.09,0.003790837,0,52.49,59.97,33.91,35.67
"2018-04-17 23:20:00",336729,0.111,300,5.996,100,0,0.5,867.1581,0,-4.12,3.186,184,6.027,5.116,0,0,52.49,59.97,33.91,35.67
"2018-04-17 23:30:00",336730,0.42,200.9,5.873,100,0,0,867.1054,0,-4.173,3.188,177,6.004,5.129,0.3335936,0,52.55,59.97,33.92,35.67
"2018-04-17 23:40:00",336731,0.493,188.6,5.797,100,0,0,866.9243,0.5,-4.148,3.188,172,5.98,5.137,0.4473187,0,52.55,60.03,33.92,35.69
"2018-04-17 23:50:00",336732,0.501,150.3,5.795,100,0,0.5,866.6624,0,-3.845,3.185,194,5.994,5.14,0.4549004,0,52.6,60.03,33.94,35.69
